This is the latest recevied weather packets stored in our database for station/object K5NWZ. If no packets are shown the sender has not sent any weather packets the latest 10 day(s).
| Time | Temp. | Humidity | Pressure | Rain* | Wind** | Luminosity | Snow |
|---|---|---|---|---|---|---|---|
| 1788158458 | 17.78° C | 70% | 1028.2 hPa | 0 mm | - | 0 W/m² | - |
| 1788158155 | 17.78° C | 71% | 1028 hPa | 0 mm | - | 0 W/m² | - |
| 1788157854 | 18.33° C | 68% | 1028 hPa | 0 mm | - | 0 W/m² | - |
| 1788157549 | 18.33° C | 68% | 1028 hPa | 0 mm | - | 0 W/m² | - |
| 1788157249 | 18.33° C | 68% | 1028.3 hPa | 0 mm | - | 0 W/m² | - |
| 1788156946 | 18.33° C | 66% | 1028.1 hPa | 0 mm | - | 0 W/m² | - |
| 1788156643 | 18.33° C | 68% | 1027.9 hPa | 0 mm | - | 0 W/m² | - |
| 1788156338 | 18.33° C | 67% | 1028.1 hPa | 0 mm | - | 0 W/m² | - |
| 1788156033 | 18.33° C | 68% | 1028.4 hPa | 0 mm | - | 0 W/m² | - |
| 1788155727 | 18.33° C | 68% | 1028.4 hPa | 0 mm | - | 0 W/m² | - |
| 1788155424 | 18.33° C | 67% | 1028.7 hPa | 0 mm | - | 0 W/m² | - |
| 1788155123 | 18.33° C | 67% | 1028.7 hPa | 0 mm | - | 0 W/m² | - |
| 1788154822 | 18.89° C | 64% | 1028.3 hPa | 0 mm | - | 0 W/m² | - |
| 1788154520 | 18.89° C | 63% | 1028.4 hPa | 0 mm | - | 0 W/m² | - |
| 1788154215 | 18.89° C | 62% | 1028.3 hPa | 0 mm | - | 0 W/m² | - |
| 1788153914 | 19.44° C | 61% | 1028.7 hPa | 0 mm | - | 0 W/m² | - |
| 1788153609 | 19.44° C | 62% | 1028.7 hPa | 0 mm | - | 0 W/m² | - |
| 1788153307 | 19.44° C | 61% | 1028.7 hPa | 0 mm | - | 0 W/m² | - |
| 1788153006 | 19.44° C | 62% | 1028.7 hPa | 0 mm | - | 0 W/m² | - |
| 1788152701 | 19.44° C | 63% | 1028.7 hPa | 0 mm | - | 0 W/m² | - |
| 1788152399 | 19.44° C | 63% | 1028.9 hPa | 0 mm | - | 0 W/m² | - |
| 1788152098 | 19.44° C | 63% | 1028.7 hPa | 0 mm | - | 0 W/m² | - |
| 1788151795 | 19.44° C | 62% | 1028.7 hPa | 0 mm | - | 0 W/m² | - |
| 1788151490 | 18.89° C | 59% | 1028.9 hPa | 0 mm | - | 0 W/m² | - |
| 1788151185 | 18.89° C | 59% | 1028.7 hPa | 0 mm | - | 0 W/m² | - |
* Rain latest hour (hover to see other rain measurements)
** Current wind speed in m/s (hover to see current wind gust speed)